Retour au catalogue

SL-8 DEB

ActifLEO
NORAD 1617·DEBRIS·🇷🇺 Russia

Lancé Sep 18, 1965 depuis Baikonur Cosmodrome

Loading…

Prochains Passages (prochaines 24 heures)

TLE

FraisSource: Space-Track

Époque: Sep 14, 2026, 06:18 UTC

1 01617U 65073J   26257.26285661  .00000300  00000-0  28685-2 0  9998
2 01617  56.1268 191.7633 0229051  61.2096 101.9442 12.34810185741442

Suivez SL-8 DEB en temps réel avec AllMySat

Download on the App Store